Location: Newark
(42.9277°N, 71.8621°W)
Time: 19:52:00
(UTC+00:00)

Transit 4A - Pass Details

Date: 21 May 2021
Orbit: 872 x 973 km, 66.8° (Epoch: 15 June)

Event Time Altitude Azimuth Distance (km) Brightness Sun altitude
Rises 03:56:06 0° 336° (NNW) 3,497 12.2 -25.9°
Reaches altitude 10° 03:59:42 10° 358° (N) 2,542 11.2 -26.0°
Maximum altitude 04:03:12 16° 35° (NE) 2,133 10.3 -26.2°
Drops below altitude 10° 04:06:41 10° 72° (ENE) 2,523 10.2 -26.3°
Enters shadow 04:09:46 - 92° (E) 3,319 10.7 -26.4°
